ATLAS V CENTAUR R/B, 41329

Orbit data source: Space-Track

ATLAS V CENTAUR R/B, 41329 is space debris in MEO originally from a launch on Fri, 05 Feb 2016 UTC launched from the Air Force Eastern Test Range (AFETR). Debris objects in space refer to the collection of defunct objects orbiting the Earth. Examples of debris include non-operational satellites, rocket bodies, and fragments generated from explosions, collisions, or faulty payload assembly.

Loading next visibility...
Identifier
41329, 2016-007B
Orbit
MEO
Country
Flag of USUS
Related business
Flag of USUnited Launch Alliance/Lockheed Martin (US)
Manufacturer
LMSS Denver
Mission
Spacecraft
Bus & Motor
CENTAUR SEC, RL10C-1
Mass
~2,020 kg wet, 2,020 kg dry
Launch date (UTC)
2016-02-05 (10 years ago)
Launch vehicle
Unknown
Launch site
Air Force Eastern Test Range (AFETR)
Object type
Payload
Rocket body
Debris
Shape & HBR
Cyl + 1 Nozzle, 5.8 m
Radar Cross Section
32.260 m², Large (>1 m²)

Expand to show TLE details & history
Last TLE update: 2 days ago

TLE from 2 days ago
0 ATLAS V CENTAUR R/B
1 41329U 16007B   26125.62675693  .00000032  00000-0  00000+0 0  9997
2 41329  55.6882 105.5127 0110275 355.3435   4.5291  1.91799408 71793
Epoch: 2026-05-05T15:02Z
TLE epoch observation values (Epoch: 2026-05-05T15:02:31.798Z)
Latitude
0.00005°
Longitude
16.3622°
Altitude
20,684.734 km
Speed
3.859 km/s
True Right ascension
07h 01m 58s
True Declination
0° 00' 00"
Sunlit
Object was in daylight at epoch
Visualization orbit readout
Latitude
Unknown
Longitude
Unknown
Altitude
Unknown
Speed
Unknown
Apparent Right ascension
Unknown
Apparent Declination
Unknown
Sunlit
N/A
Visualization observer readout
Local Sidereal Time
03:23:13
Azimuth
Unknown
Elevation
Unknown
Doppler factor
Unknown
Orbital elements
Apogee altitude
21,287.009 km
Perigee altitude
20,683.51 km
Semi-major axis
27,363.396 km
Eccentricity
0.01103
Inclination
55.6882°
RAAN
105.5127°
Arg. of periapsis
355.3435°
True anomaly
4.63027°
Mean anomaly
4.5291°
Eccentric anomaly
4.57955°
Mean motion
0.4795 °/min
Orbital period
750.78 mins
BSTAR
0
Loading maneuver chart data...
Computing Atmospheric mass density...
Loading historical data...
Loading historical data...
Loading historical data...
Loading historical data...
Loading historical data...
Loading historical data...
Loading historical data...
Other satellites on launch #7 in the year 2016 (2016-02-05 UTC)

Documentation

Showing up to 5 results
|